Time,TemperatureF,DewpointF,PressureIn,WindDirection,WindDirectionDegrees,WindSpeedMPH,WindSpeedGustMPH,Humidity,HourlyPrecipIn,Conditions,Clouds,dailyrainin,SolarRadiationWatts/m^2,SoftwareType,DateUTC
2013-07-14 00:01:00,66.6,62.3,30.03,SSE,165,6.0,6.0,86,0.00,,BKN075,0.00,0.00,VWS V14.01,2013-07-14 05:01:00,
2013-07-14 00:06:00,66.8,61.2,29.81,South,169,5.0,9.0,82,0.00,,,0.00,0.0,WUHU216DAVISVP2,2013-07-14 05:06:00,
2013-07-14 00:11:00,67.4,61.1,29.82,SSE,167,6.0,9.0,80,0.00,,,0.00,0.0,WUHU216DAVISVP2,2013-07-14 05:11:00,
2013-07-14 00:16:00,67.8,61.5,29.82,South,172,5.0,9.0,80,0.00,,,0.00,0.0,WUHU216DAVISVP2,2013-07-14 05:16:00,
2013-07-14 00:21:00,68.1,61.1,29.81,SSE,167,8.0,10.0,78,0.00,,,0.00,0.0,WUHU216DAVISVP2,2013-07-14 05:21:00,
2013-07-14 00:26:00,68.3,60.9,29.82,SSE,155,9.0,11.0,77,0.00,,,0.00,0.0,WUHU216DAVISVP2,2013-07-14 05:26:00,
2013-07-14 00:31:00,68.5,61.0,30.03,SSE,156,9.0,9.0,77,0.00,,BKN075,0.00,0.00,VWS V14.01,2013-07-14 05:31:00,
2013-07-14 00:36:00,68.7,60.6,29.82,SSE,157,8.0,13.0,75,0.00,,,0.00,0.0,WUHU216DAVISVP2,2013-07-14 05:36:00,
2013-07-14 00:41:00,68.8,60.7,29.82,SE,134,6.0,11.0,75,0.00,,,0.00,0.0,WUHU216DAVISVP2,2013-07-14 05:41:00,
2013-07-14 00:46:00,68.9,60.8,29.82,South,170,8.0,11.0,75,0.00,,,0.00,0.0,WUHU216DAVISVP2,2013-07-14 05:46:00,
2013-07-14 00:51:00,68.9,60.8,29.82,SSE,161,7.0,11.0,75,0.00,,,0.00,0.0,WUHU216DAVISVP2,2013-07-14 05:51:00,
2013-07-14 00:56:00,69.0,60.8,30.04,SSE,167,12.0,12.0,75,0.00,,BKN075,0.00,0.00,VWS V14.01,2013-07-14 05:56:00,
2013-07-14 01:01:00,68.9,60.4,29.82,South,173,10.0,12.0,74,0.00,,,0.00,0.0,WUHU216DAVISVP2,2013-07-14 06:01:00,
2013-07-14 01:06:00,68.9,61.0,30.04,SSE,167,10.0,10.0,76,0.00,,OVC075,0.00,0.00,VWS V14.01,2013-07-14 06:06:00,
2013-07-14 01:11:00,68.9,60.8,29.83,SSE,165,5.0,12.0,75,0.00,,,0.00,0.0,WUHU216DAVISVP2,2013-07-14 06:11:00,
2013-07-14 01:16:00,68.8,60.7,29.83,SSE,148,7.0,12.0,75,0.00,,,0.00,0.0,WUHU216DAVISVP2,2013-07-14 06:16:00,
2013-07-14 01:21:00,68.7,60.6,29.82,SSE,165,9.0,11.0,75,0.00,,,0.00,0.0,WUHU216DAVISVP2,2013-07-14 06:21:00,
2013-07-14 01:26:00,68.6,60.9,29.82,SSE,160,7.0,11.0,76,0.00,,,0.00,0.0,WUHU216DAVISVP2,2013-07-14 06:26:00,
2013-07-14 01:31:00,68.4,60.7,29.82,SSE,168,13.0,13.0,76,0.00,,,0.00,0.0,WUHU216DAVISVP2,2013-07-14 06:31:00,
2013-07-14 01:36:00,68.5,60.8,29.82,SSE,168,9.0,15.0,76,0.00,,,0.00,0.0,WUHU216DAVISVP2,2013-07-14 06:36:00,
2013-07-14 01:41:00,68.5,60.8,29.82,SSE,158,11.0,15.0,76,0.00,,,0.00,0.0,WUHU216DAVISVP2,2013-07-14 06:41:00,
2013-07-14 01:46:00,68.5,60.8,29.82,SSE,160,9.0,13.0,76,0.00,,,0.00,0.0,WUHU216DAVISVP2,2013-07-14 06:46:00,
2013-07-14 01:51:00,68.6,60.5,29.82,SSE,167,8.0,12.0,75,0.00,,,0.00,0.0,WUHU216DAVISVP2,2013-07-14 06:51:00,
2013-07-14 01:56:00,68.5,60.8,29.81,SSE,165,7.0,12.0,76,0.00,,,0.00,0.0,WUHU216DAVISVP2,2013-07-14 06:56:00,
2013-07-14 02:01:00,68.2,61.1,30.03,SSE,158,8.0,8.0,78,0.00,,OVC075,0.00,0.00,VWS V14.01,2013-07-14 07:01:00,
2013-07-14 02:06:00,68.1,60.7,29.82,SSE,155,7.0,12.0,77,0.00,,,0.00,0.0,WUHU216DAVISVP2,2013-07-14 07:06:00,
2013-07-14 02:11:00,68.1,60.4,29.82,SSE,161,7.0,12.0,76,0.00,,,0.00,0.0,WUHU216DAVISVP2,2013-07-14 07:11:00,
2013-07-14 02:16:00,68.2,60.7,30.02,SSE,161,7.0,7.0,77,0.00,,SCT090,0.00,0.00,VWS V14.01,2013-07-14 07:16:00,
2013-07-14 02:21:00,68.2,60.5,29.81,SSE,161,7.0,12.0,76,0.00,,,0.00,0.0,WUHU216DAVISVP2,2013-07-14 07:21:00,
2013-07-14 02:26:00,68.1,60.6,30.02,SSE,167,5.0,5.0,77,0.00,,SCT090,0.00,0.00,VWS V14.01,2013-07-14 07:26:00,
2013-07-14 02:31:00,67.9,60.5,29.80,SSE,163,8.0,12.0,77,0.00,,,0.00,0.0,WUHU216DAVISVP2,2013-07-14 07:31:00,
2013-07-14 02:36:00,67.9,60.5,29.80,SSE,147,7.0,13.0,77,0.00,,,0.00,0.0,WUHU216DAVISVP2,2013-07-14 07:36:00,
2013-07-14 02:41:00,67.8,60.3,29.80,SSE,164,10.0,13.0,77,0.00,,,0.00,0.0,WUHU216DAVISVP2,2013-07-14 07:41:00,
2013-07-14 02:46:00,68.0,60.9,30.01,SSE,156,8.0,8.0,78,0.00,,SCT090,0.00,0.00,VWS V14.01,2013-07-14 07:46:00,
2013-07-14 02:51:00,68.2,60.7,29.80,South,169,6.0,12.0,77,0.00,,,0.00,0.0,WUHU216DAVISVP2,2013-07-14 07:51:00,
2013-07-14 02:56:00,68.3,60.8,29.80,South,176,6.0,13.0,77,0.00,,,0.00,0.0,WUHU216DAVISVP2,2013-07-14 07:56:00,
2013-07-14 03:01:00,68.3,60.9,29.80,South,173,11.0,13.0,77,0.00,,,0.00,0.0,WUHU216DAVISVP2,2013-07-14 08:01:00,
2013-07-14 03:06:00,68.5,61.1,29.80,South,184,8.0,13.0,77,0.00,,,0.00,0.0,WUHU216DAVISVP2,2013-07-14 08:06:00,
2013-07-14 03:11:00,68.5,61.1,29.80,South,184,9.0,13.0,77,0.00,,,0.00,0.0,WUHU216DAVISVP2,2013-07-14 08:11:00,
2013-07-14 03:16:00,68.4,61.0,29.80,SSW,194,6.0,11.0,77,0.00,,,0.00,0.0,WUHU216DAVISVP2,2013-07-14 08:16:00,
2013-07-14 03:21:00,68.3,61.2,30.01,South,191,6.0,6.0,78,0.00,,BKN090,0.00,0.00,VWS V14.01,2013-07-14 08:21:00,
2013-07-14 03:26:00,68.3,60.9,29.80,SSE,167,5.0,9.0,77,0.00,,,0.00,0.0,WUHU216DAVISVP2,2013-07-14 08:26:00,
2013-07-14 03:31:00,68.4,61.3,30.01,SSE,161,7.0,7.0,78,0.00,,BKN090,0.00,0.00,VWS V14.01,2013-07-14 08:31:00,
2013-07-14 03:36:00,68.4,61.3,30.01,SSE,154,7.0,7.0,78,0.00,,BKN090,0.00,0.00,VWS V14.01,2013-07-14 08:36:00,
2013-07-14 03:41:00,68.4,61.0,29.80,South,169,6.0,9.0,77,0.00,,,0.00,0.0,WUHU216DAVISVP2,2013-07-14 08:41:00,
2013-07-14 03:46:00,68.3,60.9,29.80,SSE,164,4.0,9.0,77,0.00,,,0.00,0.0,WUHU216DAVISVP2,2013-07-14 08:46:00,
2013-07-14 03:51:00,68.2,61.2,29.80,SSE,165,4.0,7.0,78,0.00,,,0.00,0.0,WUHU216DAVISVP2,2013-07-14 08:51:00,
2013-07-14 03:56:00,68.0,61.0,29.80,SSE,161,4.0,7.0,78,0.00,,,0.00,0.0,WUHU216DAVISVP2,2013-07-14 08:56:00,
2013-07-14 04:01:00,67.9,61.2,30.01,SSE,164,4.0,4.0,79,0.00,,BKN090,0.00,0.00,VWS V14.01,2013-07-14 09:01:00,
2013-07-14 04:06:00,67.7,61.0,29.80,SSE,160,8.0,8.0,79,0.00,,,0.00,0.0,WUHU216DAVISVP2,2013-07-14 09:06:00,
2013-07-14 04:11:00,67.7,61.0,29.80,SSE,157,7.0,9.0,79,0.00,,,0.00,0.0,WUHU216DAVISVP2,2013-07-14 09:11:00,
2013-07-14 04:16:00,67.8,61.1,29.80,SSE,155,7.0,9.0,79,0.00,,,0.00,0.0,WUHU216DAVISVP2,2013-07-14 09:16:00,
2013-07-14 04:21:00,68.0,61.3,29.80,SSE,160,6.0,9.0,79,0.00,,,0.00,0.0,WUHU216DAVISVP2,2013-07-14 09:21:00,
2013-07-14 04:26:00,68.0,61.6,30.01,SSE,150,6.0,6.0,80,0.00,,OVC100,0.00,0.00,VWS V14.01,2013-07-14 09:26:00,
2013-07-14 04:31:00,67.9,61.2,29.80,SSE,157,5.0,8.0,79,0.00,,,0.00,0.0,WUHU216DAVISVP2,2013-07-14 09:31:00,
2013-07-14 04:36:00,67.9,61.6,29.80,SSE,161,8.0,8.0,80,0.00,,,0.00,0.0,WUHU216DAVISVP2,2013-07-14 09:36:00,
2013-07-14 04:41:00,67.9,61.9,30.01,SSE,156,4.0,5.0,81,0.00,,OVC100,0.00,0.00,VWS V14.01,2013-07-14 09:41:00,
2013-07-14 04:46:00,67.9,61.6,29.81,SSE,159,5.0,8.0,80,0.00,,,0.00,0.0,WUHU216DAVISVP2,2013-07-14 09:46:00,
2013-07-14 04:51:00,67.8,61.8,29.81,SSE,159,4.0,7.0,81,0.00,,,0.00,0.0,WUHU216DAVISVP2,2013-07-14 09:51:00,
2013-07-14 04:56:00,67.7,61.7,29.81,SSE,156,6.0,8.0,81,0.00,,,0.00,0.0,WUHU216DAVISVP2,2013-07-14 09:56:00,
2013-07-14 05:01:00,67.7,61.7,29.81,SSE,161,4.0,8.0,81,0.00,,,0.00,0.0,WUHU216DAVISVP2,2013-07-14 10:01:00,
2013-07-14 05:06:00,67.7,62.1,29.81,SSE,157,5.0,7.0,82,0.00,,,0.00,0.0,WUHU216DAVISVP2,2013-07-14 10:06:00,
2013-07-14 05:11:00,67.6,62.0,29.81,SE,125,4.0,7.0,82,0.00,,,0.00,0.0,WUHU216DAVISVP2,2013-07-14 10:11:00,
2013-07-14 05:16:00,67.6,62.3,29.82,SSE,167,6.0,7.0,83,0.00,,,0.00,0.0,WUHU216DAVISVP2,2013-07-14 10:16:00,
2013-07-14 05:21:00,67.6,62.6,30.02,SSE,157,2.0,2.0,84,0.00,,OVC080,0.00,0.00,VWS V14.01,2013-07-14 10:21:00,
2013-07-14 05:26:00,67.6,62.3,29.81,SSE,164,2.0,8.0,83,0.00,,,0.00,0.0,WUHU216DAVISVP2,2013-07-14 10:26:00,
2013-07-14 05:31:00,67.6,62.9,30.02,SSE,165,5.0,5.0,85,0.00,,OVC080,0.00,0.00,VWS V14.01,2013-07-14 10:31:00,
2013-07-14 05:36:00,67.5,62.5,29.82,SSE,167,4.0,8.0,84,0.00,,,0.00,0.0,WUHU216DAVISVP2,2013-07-14 10:36:00,
2013-07-14 05:41:00,67.6,62.6,29.82,SSE,166,6.0,9.0,84,0.00,,,0.00,0.0,WUHU216DAVISVP2,2013-07-14 10:41:00,
2013-07-14 05:46:00,67.7,62.7,29.82,SSE,157,9.0,10.0,84,0.00,,,0.00,0.0,WUHU216DAVISVP2,2013-07-14 10:46:00,
2013-07-14 05:51:00,67.8,62.8,29.82,SSE,153,9.0,10.0,84,0.00,,,0.00,0.0,WUHU216DAVISVP2,2013-07-14 10:51:00,
2013-07-14 05:56:00,67.9,62.9,29.82,SSE,164,5.0,10.0,84,0.00,,,0.00,0.0,WUHU216DAVISVP2,2013-07-14 10:56:00,
2013-07-14 06:01:00,68.0,63.0,29.82,SSE,163,6.0,10.0,84,0.00,,,0.00,5.0,WUHU216DAVISVP2,2013-07-14 11:01:00,
2013-07-14 06:06:00,68.0,63.0,29.81,SSE,164,5.0,9.0,84,0.00,,,0.00,5.0,WUHU216DAVISVP2,2013-07-14 11:06:00,
2013-07-14 06:11:00,68.0,63.0,29.82,SSE,165,6.0,9.0,84,0.00,,,0.00,7.0,WUHU216DAVISVP2,2013-07-14 11:11:00,
2013-07-14 06:16:00,68.0,63.0,29.83,South,186,9.0,11.0,84,0.00,,,0.00,9.0,WUHU216DAVISVP2,2013-07-14 11:16:00,
2013-07-14 06:21:00,68.1,63.4,30.04,SSE,163,8.0,10.0,85,0.00,,OVC095,0.00,11.00,VWS V14.01,2013-07-14 11:21:00,
2013-07-14 06:26:00,68.2,63.2,29.82,SSE,159,8.0,12.0,84,0.00,,,0.00,12.0,WUHU216DAVISVP2,2013-07-14 11:26:00,
2013-07-14 06:31:00,68.3,63.3,29.83,South,169,8.0,10.0,84,0.00,,,0.00,14.0,WUHU216DAVISVP2,2013-07-14 11:31:00,
2013-07-14 06:36:00,68.3,63.3,29.83,South,172,8.0,11.0,84,0.00,,,0.00,16.0,WUHU216DAVISVP2,2013-07-14 11:36:00,
2013-07-14 06:41:00,68.3,63.6,30.04,SSE,168,9.0,9.0,85,0.00,,OVC095,0.00,19.00,VWS V14.01,2013-07-14 11:41:00,
2013-07-14 06:46:00,68.4,63.4,29.82,SSE,148,10.0,10.0,84,0.00,,,0.00,21.0,WUHU216DAVISVP2,2013-07-14 11:46:00,
2013-07-14 06:51:00,68.4,63.4,29.82,South,182,6.0,11.0,84,0.00,,,0.00,30.0,WUHU216DAVISVP2,2013-07-14 11:51:00,
2013-07-14 06:56:00,68.6,63.6,29.82,SSE,160,8.0,11.0,84,0.00,,,0.00,35.0,WUHU216DAVISVP2,2013-07-14 11:56:00,
2013-07-14 07:01:00,68.6,63.6,29.83,SSE,156,8.0,13.0,84,0.00,,,0.00,28.0,WUHU216DAVISVP2,2013-07-14 12:01:00,
2013-07-14 07:06:00,68.6,63.6,29.83,SE,142,6.0,13.0,84,0.00,,,0.00,32.0,WUHU216DAVISVP2,2013-07-14 12:06:00,
2013-07-14 07:11:00,68.7,63.7,29.83,SSE,155,7.0,14.0,84,0.00,,,0.00,33.0,WUHU216DAVISVP2,2013-07-14 12:11:00,
2013-07-14 07:16:00,68.6,63.9,29.83,South,172,12.0,14.0,85,0.00,,,0.00,39.0,WUHU216DAVISVP2,2013-07-14 12:16:00,
2013-07-14 07:21:00,68.7,64.0,29.83,South,169,10.0,13.0,85,0.00,,,0.00,35.0,WUHU216DAVISVP2,2013-07-14 12:21:00,
2013-07-14 07:26:00,68.8,64.4,30.04,South,175,11.0,11.0,86,0.00,,OVC085,0.00,32.00,VWS V14.01,2013-07-14 12:26:00,
2013-07-14 07:31:00,68.8,64.1,30.05,SSE,155,11.0,11.0,85,0.00,,OVC085,0.00,23.00,VWS V14.01,2013-07-14 12:31:00,
2013-07-14 07:36:00,68.8,63.8,29.84,SSE,161,10.0,12.0,84,0.00,,,0.00,18.0,WUHU216DAVISVP2,2013-07-14 12:36:00,
2013-07-14 07:41:00,68.8,63.8,29.84,SSE,161,9.0,13.0,84,0.00,,,0.00,18.0,WUHU216DAVISVP2,2013-07-14 12:41:00,
2013-07-14 07:46:00,68.7,64.3,30.05,SSE,163,10.0,10.0,86,0.00,,OVC085,0.00,23.00,VWS V14.01,2013-07-14 12:46:00,
2013-07-14 07:51:00,68.8,64.1,29.84,SSE,157,9.0,13.0,85,0.00,,,0.00,32.0,WUHU216DAVISVP2,2013-07-14 12:51:00,
2013-07-14 07:56:00,68.8,64.1,29.84,South,175,8.0,13.0,85,0.00,,,0.00,39.0,WUHU216DAVISVP2,2013-07-14 12:56:00,
2013-07-14 08:01:00,69.0,64.3,30.05,SSE,154,12.0,12.0,85,0.00,,OVC085,0.00,47.00,VWS V14.01,2013-07-14 13:01:00,
2013-07-14 08:06:00,69.1,64.4,30.05,SSE,161,11.0,11.0,85,0.00,,OVC095,0.00,54.00,VWS V14.01,2013-07-14 13:06:00,
2013-07-14 08:11:00,69.2,64.2,29.84,SSE,160,12.0,14.0,84,0.00,,,0.00,62.0,WUHU216DAVISVP2,2013-07-14 13:11:00,
2013-07-14 08:16:00,69.3,64.6,30.05,South,171,10.0,10.0,85,0.00,,OVC095,0.00,70.00,VWS V14.01,2013-07-14 13:16:00,
2013-07-14 08:21:00,69.3,64.3,29.84,SSE,150,8.0,12.0,84,0.00,,,0.00,70.0,WUHU216DAVISVP2,2013-07-14 13:21:00,
2013-07-14 08:26:00,69.3,64.3,29.85,SSE,167,10.0,11.0,84,0.00,,,0.00,65.0,WUHU216DAVISVP2,2013-07-14 13:26:00,
2013-07-14 08:31:00,69.4,64.7,30.06,South,171,8.0,8.0,85,0.00,,OVC095,0.00,67.00,VWS V14.01,2013-07-14 13:31:00,
2013-07-14 08:36:00,69.4,64.4,29.85,South,172,8.0,12.0,84,0.00,,,0.00,69.0,WUHU216DAVISVP2,2013-07-14 13:36:00,
2013-07-14 08:41:00,69.5,64.5,29.85,South,169,7.0,11.0,84,0.00,,,0.00,63.0,WUHU216DAVISVP2,2013-07-14 13:41:00,
2013-07-14 08:46:00,69.5,64.5,29.85,SSE,167,9.0,11.0,84,0.00,,,0.00,58.0,WUHU216DAVISVP2,2013-07-14 13:46:00,
2013-07-14 08:51:00,69.5,64.1,29.86,SSE,165,7.0,12.0,83,0.00,,,0.00,70.0,WUHU216DAVISVP2,2013-07-14 13:51:00,
2013-07-14 08:56:00,69.6,64.6,30.07,SSE,166,7.0,7.0,84,0.00,,OVC095,0.00,86.00,VWS V14.01,2013-07-14 13:56:00,
2013-07-14 09:01:00,69.7,64.7,29.86,South,180,7.0,11.0,84,0.00,,,0.00,102.0,WUHU216DAVISVP2,2013-07-14 14:01:00,
2013-07-14 09:06:00,69.9,65.2,30.08,South,176,5.0,5.0,85,0.00,,OVC095,0.00,113.00,VWS V14.01,2013-07-14 14:06:00,
2013-07-14 09:11:00,70.1,65.4,30.08,SSW,195,8.0,8.0,85,0.00,,OVC095,0.00,114.00,VWS V14.01,2013-07-14 14:11:00,
2013-07-14 09:16:00,70.2,64.8,29.87,South,191,6.0,9.0,83,0.00,,,0.00,121.0,WUHU216DAVISVP2,2013-07-14 14:16:00,
2013-07-14 09:21:00,70.3,64.9,29.87,SSE,165,5.0,9.0,83,0.00,,,0.00,128.0,WUHU216DAVISVP2,2013-07-14 14:21:00,
2013-07-14 09:26:00,70.4,65.0,29.88,South,173,7.0,8.0,83,0.00,,,0.00,144.0,WUHU216DAVISVP2,2013-07-14 14:26:00,
2013-07-14 09:31:00,70.6,65.2,29.88,South,176,6.0,8.0,83,0.00,,,0.00,158.0,WUHU216DAVISVP2,2013-07-14 14:31:00,
2013-07-14 09:36:00,70.7,65.6,30.09,South,180,4.0,4.0,84,0.00,,OVC095,0.00,179.00,VWS V14.01,2013-07-14 14:36:00,
2013-07-14 09:41:00,71.0,65.2,29.88,SSE,163,6.0,8.0,82,0.00,,,0.00,199.0,WUHU216DAVISVP2,2013-07-14 14:41:00,
2013-07-14 09:46:00,71.3,65.9,29.88,SSE,165,4.0,7.0,83,0.00,,,0.00,234.0,WUHU216DAVISVP2,2013-07-14 14:46:00,
2013-07-14 09:51:00,71.6,66.2,29.89,SSW,194,6.0,7.0,83,0.00,,,0.00,276.0,WUHU216DAVISVP2,2013-07-14 14:51:00,
2013-07-14 09:56:00,72.0,66.3,29.88,South,185,4.0,8.0,82,0.00,,,0.00,294.0,WUHU216DAVISVP2,2013-07-14 14:56:00,
2013-07-14 10:01:00,72.3,66.6,29.89,SSE,167,7.0,8.0,82,0.00,,,0.00,343.0,WUHU216DAVISVP2,2013-07-14 15:01:00,
2013-07-14 10:06:00,72.7,67.2,30.10,SSE,157,5.0,5.0,83,0.00,,CLR,0.00,350.00,VWS V14.01,2013-07-14 15:06:00,
2013-07-14 10:11:00,72.8,66.4,29.88,SSE,153,5.0,9.0,80,0.00,,,0.00,403.0,WUHU216DAVISVP2,2013-07-14 15:11:00,
2013-07-14 10:16:00,73.1,67.3,30.09,SSE,165,7.0,7.0,82,0.00,,CLR,0.00,429.00,VWS V14.01,2013-07-14 15:16:00,
2013-07-14 10:21:00,73.2,66.3,29.89,SSW,198,7.0,10.0,79,0.00,,,0.00,399.0,WUHU216DAVISVP2,2013-07-14 15:21:00,
2013-07-14 10:26:00,73.5,67.4,29.88,South,178,5.0,10.0,81,0.00,,,0.00,455.0,WUHU216DAVISVP2,2013-07-14 15:26:00,
2013-07-14 10:31:00,74.1,68.0,29.88,South,171,10.0,10.0,81,0.00,,,0.00,575.0,WUHU216DAVISVP2,2013-07-14 15:31:00,
2013-07-14 10:36:00,74.6,68.0,29.88,SE,146,10.0,10.0,80,0.00,,,0.00,622.0,WUHU216DAVISVP2,2013-07-14 15:36:00,
2013-07-14 10:41:00,74.8,67.2,29.88,South,175,10.0,13.0,77,0.00,,,0.00,577.0,WUHU216DAVISVP2,2013-07-14 15:41:00,
2013-07-14 10:46:00,74.9,67.3,29.88,SSE,164,8.0,13.0,77,0.00,,,0.00,568.0,WUHU216DAVISVP2,2013-07-14 15:46:00,
2013-07-14 10:51:00,74.8,67.5,30.08,SSE,157,13.0,13.0,78,0.00,,CLR,0.00,548.00,VWS V14.01,2013-07-14 15:51:00,
2013-07-14 10:56:00,74.5,67.3,29.88,SSE,164,11.0,14.0,78,0.00,,,0.00,512.0,WUHU216DAVISVP2,2013-07-14 15:56:00,
2013-07-14 11:01:00,74.3,66.4,29.88,SSE,168,11.0,16.0,76,0.00,,,0.00,494.0,WUHU216DAVISVP2,2013-07-14 16:01:00,
2013-07-14 11:06:00,74.1,65.8,29.88,SSE,156,5.0,16.0,75,0.00,,,0.00,399.0,WUHU216DAVISVP2,2013-07-14 16:06:00,
2013-07-14 11:11:00,73.8,65.9,29.88,SE,140,8.0,15.0,76,0.00,,,0.00,367.0,WUHU216DAVISVP2,2013-07-14 16:11:00,
2013-07-14 11:16:00,73.7,65.8,29.89,SSE,160,11.0,15.0,76,0.00,,,0.00,366.0,WUHU216DAVISVP2,2013-07-14 16:16:00,
2013-07-14 11:21:00,73.5,65.5,30.10,SSW,200,12.0,13.0,76,0.00,,CLR,0.00,292.00,VWS V14.01,2013-07-14 16:21:00,
2013-07-14 11:26:00,73.1,65.2,29.89,SSE,163,10.0,16.0,76,0.00,,,0.00,285.0,WUHU216DAVISVP2,2013-07-14 16:26:00,
2013-07-14 11:31:00,72.9,65.4,29.89,SSE,166,9.0,16.0,77,0.00,,,0.00,283.0,WUHU216DAVISVP2,2013-07-14 16:31:00,
2013-07-14 11:36:00,72.8,65.7,29.89,SSE,154,9.0,15.0,78,0.00,,,0.00,269.0,WUHU216DAVISVP2,2013-07-14 16:36:00,
2013-07-14 11:41:00,72.7,65.4,30.10,SE,140,15.0,15.0,78,0.00,,CLR,0.00,283.00,VWS V14.01,2013-07-14 16:41:00,
2013-07-14 11:46:00,72.7,65.8,30.10,South,180,8.0,11.0,79,0.00,,CLR,0.00,274.00,VWS V14.01,2013-07-14 16:46:00,
2013-07-14 11:51:00,72.6,65.0,30.11,SSE,155,11.0,13.0,77,0.00,,CLR,0.00,202.00,VWS V14.01,2013-07-14 16:51:00,
2013-07-14 11:56:00,72.4,65.2,29.90,South,184,9.0,16.0,78,0.00,,,0.00,137.0,WUHU216DAVISVP2,2013-07-14 16:56:00,
2013-07-14 12:01:00,72.1,65.3,29.90,South,184,9.0,16.0,79,0.00,,,0.00,116.0,WUHU216DAVISVP2,2013-07-14 17:01:00,
2013-07-14 12:06:00,71.9,65.1,29.90,South,178,11.0,16.0,79,0.00,,,0.00,148.0,WUHU216DAVISVP2,2013-07-14 17:06:00,
2013-07-14 12:11:00,71.8,65.0,29.90,SSE,168,9.0,15.0,79,0.00,,,0.00,174.0,WUHU216DAVISVP2,2013-07-14 17:11:00,
2013-07-14 12:16:00,71.9,65.8,29.90,SSE,164,8.0,15.0,81,0.00,,,0.00,165.0,WUHU216DAVISVP2,2013-07-14 17:16:00,
2013-07-14 12:21:00,71.8,65.4,29.90,South,169,9.0,12.0,80,0.00,,,0.00,135.0,WUHU216DAVISVP2,2013-07-14 17:21:00,
2013-07-14 12:26:00,71.7,65.9,30.11,South,178,6.0,8.0,82,0.00,,OVC040,0.00,107.00,VWS V14.01,2013-07-14 17:26:00,
2013-07-14 12:31:00,71.5,65.8,29.90,South,173,8.0,11.0,82,0.00,,,0.00,116.0,WUHU216DAVISVP2,2013-07-14 17:31:00,
2013-07-14 12:36:00,71.2,65.8,29.90,South,169,9.0,11.0,83,0.00,,,0.00,111.0,WUHU216DAVISVP2,2013-07-14 17:36:00,
2013-07-14 12:41:00,70.9,65.9,29.90,SSE,156,11.0,13.0,84,0.00,,,0.00,109.0,WUHU216DAVISVP2,2013-07-14 17:41:00,
2013-07-14 12:46:00,70.6,65.5,30.11,South,176,10.0,11.0,84,0.00,,OVC040,0.00,116.00,VWS V14.01,2013-07-14 17:46:00,
2013-07-14 12:51:00,70.4,65.0,29.90,SSW,192,14.0,16.0,83,0.00,,,0.00,109.0,WUHU216DAVISVP2,2013-07-14 17:51:00,
2013-07-14 12:56:00,70.2,64.4,29.90,SSE,168,13.0,16.0,82,0.00,,,0.00,107.0,WUHU216DAVISVP2,2013-07-14 17:56:00,
2013-07-14 13:01:00,70.1,64.7,29.90,South,180,8.0,16.0,83,0.00,,,0.00,125.0,WUHU216DAVISVP2,2013-07-14 18:01:00,
2013-07-14 13:06:00,70.2,65.2,29.90,South,184,5.0,13.0,84,0.00,,,0.00,158.0,WUHU216DAVISVP2,2013-07-14 18:06:00,
2013-07-14 13:11:00,70.4,65.7,29.90,South,184,6.0,12.0,85,0.00,,,0.00,200.0,WUHU216DAVISVP2,2013-07-14 18:11:00,
2013-07-14 13:16:00,70.7,65.6,29.89,South,186,7.0,13.0,84,0.00,,,0.00,230.0,WUHU216DAVISVP2,2013-07-14 18:16:00,
2013-07-14 13:21:00,71.2,66.5,30.11,SSE,165,7.0,7.0,85,0.00,,BKN042,0.00,255.00,VWS V14.01,2013-07-14 18:21:00,
2013-07-14 13:26:00,71.6,66.2,29.90,South,176,8.0,12.0,83,0.00,,,0.00,299.0,WUHU216DAVISVP2,2013-07-14 18:26:00,
2013-07-14 13:31:00,72.1,65.9,29.90,SSE,156,9.0,14.0,81,0.00,,,0.00,376.0,WUHU216DAVISVP2,2013-07-14 18:31:00,
2013-07-14 13:36:00,72.6,66.5,29.90,South,187,8.0,14.0,81,0.00,,,0.00,534.0,WUHU216DAVISVP2,2013-07-14 18:36:00,
2013-07-14 13:40:00,73.6,68.1,30.11,SSE,163,7.0,7.0,83,0.00,,BKN042,0.00,587.00,VWS V14.01,2013-07-14 18:40:00,
2013-07-14 13:45:00,74.3,67.1,29.90,South,175,8.0,12.0,78,0.00,,,0.00,807.0,WUHU216DAVISVP2,2013-07-14 18:45:00,
2013-07-14 13:50:00,75.2,67.9,29.90,South,173,7.0,12.0,78,0.00,,,0.00,631.0,WUHU216DAVISVP2,2013-07-14 18:50:00,
2013-07-14 13:55:00,75.9,68.7,29.90,SSE,151,12.0,13.0,78,0.00,,,0.00,661.0,WUHU216DAVISVP2,2013-07-14 18:55:00,
2013-07-14 14:00:00,76.1,68.5,29.90,SSE,167,10.0,13.0,77,0.00,,,0.00,603.0,WUHU216DAVISVP2,2013-07-14 19:00:00,
2013-07-14 14:01:00,76.1,68.1,29.90,SSE,168,10.0,13.0,76,0.00,,,0.00,603.0,WUHU216DAVISVP2,2013-07-14 19:01:00,
2013-07-14 14:06:00,76.1,68.5,29.90,South,176,9.0,13.0,77,0.00,,,0.00,1218.0,WUHU216DAVISVP2,2013-07-14 19:06:00,
2013-07-14 14:11:00,76.8,68.8,29.90,South,179,6.0,13.0,76,0.00,,,0.00,868.0,WUHU216DAVISVP2,2013-07-14 19:11:00,
2013-07-14 14:16:00,77.2,68.7,29.90,South,184,11.0,12.0,75,0.00,,,0.00,545.0,WUHU216DAVISVP2,2013-07-14 19:16:00,
2013-07-14 14:21:00,76.9,68.9,29.90,South,180,10.0,13.0,76,0.00,,,0.00,619.0,WUHU216DAVISVP2,2013-07-14 19:21:00,
2013-07-14 14:26:00,77.1,68.3,29.90,SW,223,8.0,13.0,74,0.00,,,0.00,527.0,WUHU216DAVISVP2,2013-07-14 19:26:00,
2013-07-14 14:31:00,76.9,68.8,30.10,South,186,7.0,8.0,76,0.00,,SCT036,0.00,369.00,VWS V14.01,2013-07-14 19:31:00,
2013-07-14 14:36:00,76.5,68.1,29.90,SSE,159,9.0,12.0,75,0.00,,,0.00,320.0,WUHU216DAVISVP2,2013-07-14 19:36:00,
2013-07-14 14:41:00,76.1,68.4,29.90,South,169,7.0,9.0,77,0.00,,,0.00,278.0,WUHU216DAVISVP2,2013-07-14 19:41:00,
2013-07-14 14:46:00,76.0,68.7,30.11,South,190,6.0,6.0,78,0.00,,SCT036,0.00,295.00,VWS V14.01,2013-07-14 19:46:00,
2013-07-14 14:51:00,76.0,68.8,29.90,South,186,4.0,8.0,78,0.00,,,0.00,250.0,WUHU216DAVISVP2,2013-07-14 19:51:00,
2013-07-14 14:56:00,76.0,68.4,29.90,South,189,6.0,8.0,77,0.00,,,0.00,216.0,WUHU216DAVISVP2,2013-07-14 19:56:00,
2013-07-14 15:01:00,76.0,68.8,29.90,South,186,1.0,6.0,78,0.00,,,0.00,260.0,WUHU216DAVISVP2,2013-07-14 20:01:00,
2013-07-14 15:06:00,76.2,69.2,30.10,SSW,196,3.0,3.0,79,0.00,,FEW060,0.00,295.00,VWS V14.01,2013-07-14 20:06:00,
2013-07-14 15:11:00,76.4,69.4,30.10,SSW,201,5.0,5.0,79,0.00,,FEW060,0.00,323.00,VWS V14.01,2013-07-14 20:11:00,
2013-07-14 15:16:00,76.7,69.7,30.10,South,180,4.0,4.0,79,0.00,,FEW060,0.00,371.00,VWS V14.01,2013-07-14 20:16:00,
2013-07-14 15:21:00,77.1,69.8,29.89,South,178,4.0,7.0,78,0.00,,,0.00,482.0,WUHU216DAVISVP2,2013-07-14 20:21:00,
2013-07-14 15:26:00,77.6,70.3,29.89,South,189,4.0,6.0,78,0.00,,,0.00,432.0,WUHU216DAVISVP2,2013-07-14 20:26:00,
2013-07-14 15:31:00,78.0,69.8,29.89,South,191,2.0,7.0,76,0.00,,,0.00,478.0,WUHU216DAVISVP2,2013-07-14 20:31:00,
2013-07-14 15:36:00,78.3,69.5,29.89,SSE,159,4.0,7.0,74,0.00,,,0.00,496.0,WUHU216DAVISVP2,2013-07-14 20:36:00,
2013-07-14 15:41:00,78.4,70.4,29.89,SSE,156,4.0,7.0,76,0.00,,,0.00,482.0,WUHU216DAVISVP2,2013-07-14 20:41:00,
2013-07-14 15:46:00,78.7,70.9,30.10,SSE,157,4.0,4.0,77,0.00,,FEW060,0.00,596.00,VWS V14.01,2013-07-14 20:46:00,
2013-07-14 15:51:00,79.2,70.8,29.89,SSE,162,4.0,7.0,75,0.00,,,0.00,411.0,WUHU216DAVISVP2,2013-07-14 20:51:00,
2013-07-14 15:56:00,79.2,71.1,29.89,South,182,6.0,7.0,76,0.00,,,0.00,381.0,WUHU216DAVISVP2,2013-07-14 20:56:00,
2013-07-14 16:01:00,79.4,71.2,30.09,SSW,196,5.0,5.0,76,0.00,,FEW060,0.00,434.00,VWS V14.01,2013-07-14 21:01:00,
2013-07-14 16:06:00,79.5,70.7,29.89,South,184,7.0,7.0,74,0.00,,,0.00,432.0,WUHU216DAVISVP2,2013-07-14 21:06:00,
2013-07-14 16:11:00,79.9,71.4,29.89,SSE,157,5.0,8.0,75,0.00,,,0.00,693.0,WUHU216DAVISVP2,2013-07-14 21:11:00,
2013-07-14 16:16:00,80.3,71.4,29.89,SSE,156,4.0,8.0,74,0.00,,,0.00,673.0,WUHU216DAVISVP2,2013-07-14 21:16:00,
2013-07-14 16:21:00,80.6,71.9,30.09,SW,219,1.0,0.0,75,0.00,,FEW080,0.00,506.00,VWS V14.01,2013-07-14 21:21:00,
2013-07-14 16:26:00,80.4,71.5,29.88,SSE,157,6.0,8.0,74,0.00,,,0.00,364.0,WUHU216DAVISVP2,2013-07-14 21:26:00,
2013-07-14 16:31:00,80.1,71.6,29.88,SSE,161,6.0,8.0,75,0.00,,,0.00,403.0,WUHU216DAVISVP2,2013-07-14 21:31:00,
2013-07-14 16:36:00,79.9,70.7,29.88,SE,144,4.0,9.0,73,0.00,,,0.00,445.0,WUHU216DAVISVP2,2013-07-14 21:36:00,
2013-07-14 16:41:00,80.2,72.3,30.08,SE,141,5.0,5.0,77,0.00,,FEW080,0.00,700.00,VWS V14.01,2013-07-14 21:41:00,
2013-07-14 16:46:00,80.7,71.8,29.88,SSW,198,7.0,9.0,74,0.00,,,0.00,893.0,WUHU216DAVISVP2,2013-07-14 21:46:00,
2013-07-14 16:51:00,80.9,71.2,29.88,South,190,6.0,10.0,72,0.00,,,0.00,851.0,WUHU216DAVISVP2,2013-07-14 21:51:00,
2013-07-14 16:56:00,81.2,71.5,29.88,SSE,155,9.0,11.0,72,0.00,,,0.00,599.0,WUHU216DAVISVP2,2013-07-14 21:56:00,
2013-07-14 17:01:00,81.0,70.1,29.88,South,172,8.0,12.0,69,0.00,,,0.00,436.0,WUHU216DAVISVP2,2013-07-14 22:01:00,
2013-07-14 17:06:00,80.5,68.8,29.89,SSE,147,8.0,14.0,67,0.00,,,0.00,403.0,WUHU216DAVISVP2,2013-07-14 22:06:00,
2013-07-14 17:11:00,80.0,69.3,30.09,SSE,155,10.0,10.0,70,0.00,,SCT070,0.00,357.00,VWS V14.01,2013-07-14 22:11:00,
2013-07-14 17:16:00,79.8,69.8,29.89,SSE,151,10.0,13.0,71,0.00,,,0.00,353.0,WUHU216DAVISVP2,2013-07-14 22:16:00,
2013-07-14 17:21:00,80.0,70.0,29.89,South,172,6.0,13.0,71,0.00,,,0.00,424.0,WUHU216DAVISVP2,2013-07-14 22:21:00,
2013-07-14 17:26:00,80.2,69.8,29.89,South,171,6.0,12.0,70,0.00,,,0.00,380.0,WUHU216DAVISVP2,2013-07-14 22:26:00,
2013-07-14 17:31:00,80.2,69.5,29.90,SSW,194,5.0,12.0,70,0.00,,,0.00,338.0,WUHU216DAVISVP2,2013-07-14 22:31:00,
2013-07-14 17:36:00,80.1,69.0,29.89,SSE,160,8.0,9.0,69,0.00,,,0.00,271.0,WUHU216DAVISVP2,2013-07-14 22:36:00,
2013-07-14 17:41:00,79.6,69.4,30.09,SSE,155,5.0,5.0,71,0.00,,SCT070,0.00,339.00,VWS V14.01,2013-07-14 22:41:00,
2013-07-14 17:46:00,79.7,70.7,30.09,SSW,195,10.0,10.0,74,0.00,,SCT070,0.00,383.00,VWS V14.01,2013-07-14 22:46:00,
2013-07-14 17:51:00,79.9,70.3,29.89,South,171,7.0,9.0,72,0.00,,,0.00,202.0,WUHU216DAVISVP2,2013-07-14 22:51:00,
2013-07-14 17:56:00,79.6,69.4,29.89,South,169,5.0,9.0,71,0.00,,,0.00,192.0,WUHU216DAVISVP2,2013-07-14 22:56:00,
2013-07-14 18:01:00,79.2,70.0,29.90,South,172,5.0,7.0,73,0.00,,,0.00,188.0,WUHU216DAVISVP2,2013-07-14 23:01:00,
2013-07-14 18:05:00,78.9,70.5,29.89,NNW,343,11.0,11.0,75,0.00,,,0.00,181.0,WUHU216DAVISVP2,2013-07-14 23:05:00,
2013-07-14 18:11:00,77.9,70.1,29.90,NNW,348,6.0,11.0,77,0.00,,,0.00,186.0,WUHU216DAVISVP2,2013-07-14 23:11:00,
2013-07-14 18:16:00,77.0,69.7,29.90,NW,325,5.0,11.0,78,0.00,,,0.00,183.0,WUHU216DAVISVP2,2013-07-14 23:16:00,
2013-07-14 18:21:00,76.4,69.9,29.90,North,355,6.0,8.0,80,0.00,,,0.00,192.0,WUHU216DAVISVP2,2013-07-14 23:21:00,
2013-07-14 18:26:00,76.1,69.8,30.10,NNW,341,6.0,6.0,81,0.00,,OVC070,0.00,188.00,VWS V14.01,2013-07-14 23:26:00,
2013-07-14 18:31:00,75.8,69.6,29.90,North,355,9.0,9.0,81,0.00,,,0.00,204.0,WUHU216DAVISVP2,2013-07-14 23:31:00,
2013-07-14 18:36:00,75.5,69.3,29.89,NW,323,7.0,10.0,81,0.00,,,0.00,183.0,WUHU216DAVISVP2,2013-07-14 23:36:00,
2013-07-14 18:41:00,75.3,69.4,30.10,NNW,346,8.0,9.0,82,0.00,,OVC070,0.00,155.00,VWS V14.01,2013-07-14 23:41:00,
2013-07-14 18:46:00,75.0,69.1,29.89,North,355,7.0,9.0,82,0.00,,,0.00,137.0,WUHU216DAVISVP2,2013-07-14 23:46:00,
2013-07-14 18:51:00,74.7,68.9,29.89,North,355,7.0,10.0,82,0.00,,,0.00,127.0,WUHU216DAVISVP2,2013-07-14 23:51:00,
2013-07-14 18:56:00,74.3,69.2,30.10,NNW,327,8.0,8.0,84,0.00,,OVC070,0.00,118.00,VWS V14.01,2013-07-14 23:56:00,
2013-07-14 19:01:00,74.1,69.0,29.89,NW,323,5.0,9.0,84,0.00,,,0.00,109.0,WUHU216DAVISVP2,2013-07-15 00:01:00,
2013-07-14 19:06:00,73.9,69.1,30.11,NNW,338,7.0,7.0,85,0.00,,OVC075,0.00,95.00,VWS V14.01,2013-07-15 00:06:00,
2013-07-14 19:11:00,73.7,68.9,30.11,NNW,340,8.0,8.0,85,0.00,,OVC075,0.00,93.00,VWS V14.01,2013-07-15 00:11:00,
2013-07-14 19:16:00,73.6,68.5,29.90,North,9,9.0,10.0,84,0.00,,,0.00,84.0,WUHU216DAVISVP2,2013-07-15 00:16:00,
2013-07-14 19:20:00,73.3,68.5,30.11,North,355,8.0,8.0,85,0.00,,OVC075,0.00,62.00,VWS V14.01,2013-07-15 00:20:00,
2013-07-14 19:25:00,73.2,68.1,29.89,North,5,6.0,10.0,84,0.00,,,0.00,54.0,WUHU216DAVISVP2,2013-07-15 00:25:00,
2013-07-14 19:30:00,73.0,68.2,30.11,North,360,8.0,8.0,85,0.00,,OVC075,0.00,56.00,VWS V14.01,2013-07-15 00:30:00,
2013-07-14 19:35:00,72.9,68.2,29.90,NNW,347,6.0,10.0,85,0.00,,,0.00,56.0,WUHU216DAVISVP2,2013-07-15 00:35:00,
2013-07-14 19:40:00,72.7,67.9,30.11,North,360,8.0,9.0,85,0.00,,OVC075,0.00,56.00,VWS V14.01,2013-07-15 00:40:00,
2013-07-14 19:45:00,72.6,68.2,30.11,NNW,347,5.0,5.0,86,0.00,,OVC075,0.00,44.00,VWS V14.01,2013-07-15 00:45:00,
2013-07-14 19:46:00,72.6,67.9,29.90,NNW,346,5.0,9.0,85,0.00,,,0.00,44.0,WUHU216DAVISVP2,2013-07-15 00:46:00,
2013-07-14 19:50:00,72.5,67.8,29.90,North,355,8.0,8.0,85,0.00,,,0.00,35.0,WUHU216DAVISVP2,2013-07-15 00:50:00,
2013-07-14 19:55:00,72.4,67.7,29.90,North,360,6.0,8.0,85,0.00,,,0.00,40.0,WUHU216DAVISVP2,2013-07-15 00:55:00,
2013-07-14 20:00:00,72.3,67.9,30.12,NNW,340,6.0,6.0,86,0.00,,OVC075,0.00,37.00,VWS V14.01,2013-07-15 01:00:00,
2013-07-14 20:05:00,72.2,67.5,29.90,North,9,6.0,9.0,85,0.00,,,0.00,28.0,WUHU216DAVISVP2,2013-07-15 01:05:00,
2013-07-14 20:10:00,72.0,67.3,29.90,North,360,5.0,9.0,85,0.00,,,0.00,21.0,WUHU216DAVISVP2,2013-07-15 01:10:00,
2013-07-14 20:15:00,71.9,67.1,29.90,North,5,5.0,8.0,85,0.00,,,0.00,14.0,WUHU216DAVISVP2,2013-07-15 01:15:00,
2013-07-14 20:20:00,71.7,67.3,30.12,North,360,5.0,5.0,86,0.00,,OVC100,0.00,11.00,VWS V14.01,2013-07-15 01:20:00,
2013-07-14 20:25:00,71.6,67.2,29.91,North,360,7.0,8.0,86,0.00,,,0.00,11.0,WUHU216DAVISVP2,2013-07-15 01:25:00,
2013-07-14 20:30:00,71.5,67.1,29.90,North,5,5.0,7.0,86,0.00,,,0.00,9.0,WUHU216DAVISVP2,2013-07-15 01:30:00,
2013-07-14 20:35:00,71.4,67.0,29.91,North,360,7.0,7.0,86,0.00,,,0.00,5.0,WUHU216DAVISVP2,2013-07-15 01:35:00,
2013-07-14 20:40:00,71.3,66.9,29.90,NNW,348,5.0,8.0,86,0.00,,,0.00,0.0,WUHU216DAVISVP2,2013-07-15 01:40:00,
2013-07-14 20:45:00,71.3,67.2,30.12,North,349,4.0,4.0,87,0.00,,OVC100,0.00,0.00,VWS V14.01,2013-07-15 01:45:00,
2013-07-14 20:50:00,71.2,67.1,29.91,North,349,5.0,7.0,87,0.00,,,0.00,0.0,WUHU216DAVISVP2,2013-07-15 01:50:00,
2013-07-14 20:55:00,71.1,67.0,29.91,NNW,342,6.0,7.0,87,0.00,,,0.00,0.0,WUHU216DAVISVP2,2013-07-15 01:55:00,
2013-07-14 21:00:00,71.0,66.9,29.91,NNW,348,4.0,8.0,87,0.00,,,0.00,0.0,WUHU216DAVISVP2,2013-07-15 02:00:00,
2013-07-14 21:05:00,70.9,67.2,30.12,NNW,348,4.0,4.0,88,0.00,,OVC100,0.00,0.00,VWS V14.01,2013-07-15 02:05:00,
2013-07-14 21:10:00,70.8,67.1,30.13,North,349,7.0,7.0,88,0.00,,OVC100,0.00,0.00,VWS V14.01,2013-07-15 02:10:00,
2013-07-14 21:15:00,70.7,66.6,29.91,North,350,5.0,7.0,87,0.00,,,0.00,0.0,WUHU216DAVISVP2,2013-07-15 02:15:00,
2013-07-14 21:20:00,70.6,66.5,29.92,NW,322,7.0,7.0,87,0.00,,,0.00,0.0,WUHU216DAVISVP2,2013-07-15 02:20:00,
2013-07-14 21:25:00,70.5,66.8,29.92,NW,317,5.0,8.0,88,0.00,,,0.00,0.0,WUHU216DAVISVP2,2013-07-15 02:25:00,
2013-07-14 21:31:00,70.3,66.6,29.92,NNW,329,7.0,8.0,88,0.00,,,0.00,0.0,WUHU216DAVISVP2,2013-07-15 02:31:00,
2013-07-14 21:35:00,70.2,66.8,30.14,NNW,341,5.0,5.0,89,0.00,,OVC100,0.00,0.00,VWS V14.01,2013-07-15 02:35:00,
2013-07-14 21:40:00,70.0,66.3,29.93,NNW,331,6.0,11.0,88,0.00,,,0.00,0.0,WUHU216DAVISVP2,2013-07-15 02:40:00,
2013-07-14 21:45:00,69.9,66.5,30.15,North,350,7.0,7.0,89,0.00,,OVC100,0.00,0.00,VWS V14.01,2013-07-15 02:45:00,
2013-07-14 21:50:00,69.9,66.5,30.15,NNW,344,8.0,8.0,89,0.00,,OVC100,0.00,0.00,VWS V14.01,2013-07-15 02:50:00,
2013-07-14 21:55:00,69.8,66.4,29.93,North,360,5.0,9.0,89,0.00,,,0.00,0.0,WUHU216DAVISVP2,2013-07-15 02:55:00,
2013-07-14 22:00:00,69.7,66.3,29.93,North,360,5.0,9.0,89,0.00,,,0.00,0.0,WUHU216DAVISVP2,2013-07-15 03:00:00,
2013-07-14 22:05:00,69.6,66.2,29.94,North,360,6.0,9.0,89,0.00,,,0.00,0.0,WUHU216DAVISVP2,2013-07-15 03:05:00,
2013-07-14 22:10:00,69.6,66.2,29.94,North,360,5.0,9.0,89,0.00,,,0.00,0.0,WUHU216DAVISVP2,2013-07-15 03:10:00,
2013-07-14 22:15:00,69.6,66.2,29.94,North,350,5.0,8.0,89,0.00,,,0.00,0.0,WUHU216DAVISVP2,2013-07-15 03:15:00,
2013-07-14 22:20:00,69.5,66.4,30.15,North,360,8.0,8.0,90,0.00,,OVC090,0.00,0.00,VWS V14.01,2013-07-15 03:20:00,
2013-07-14 22:25:00,69.5,66.4,30.15,North,360,6.0,6.0,90,0.00,,OVC090,0.00,0.00,VWS V14.01,2013-07-15 03:25:00,
2013-07-14 22:30:00,69.5,66.4,30.15,NNW,338,10.0,10.0,90,0.00,,OVC090,0.00,0.00,VWS V14.01,2013-07-15 03:30:00,
2013-07-14 22:35:00,69.5,66.1,29.94,North,355,7.0,10.0,89,0.00,,,0.00,0.0,WUHU216DAVISVP2,2013-07-15 03:35:00,
2013-07-14 22:40:00,69.5,66.4,30.15,North,360,8.0,8.0,90,0.00,,OVC090,0.00,0.00,VWS V14.01,2013-07-15 03:40:00,
2013-07-14 22:45:00,69.5,66.4,30.15,North,355,7.0,7.0,90,0.00,,OVC090,0.00,0.00,VWS V14.01,2013-07-15 03:45:00,
2013-07-14 22:50:00,69.5,66.1,29.94,NNE,28,9.0,12.0,89,0.00,,,0.00,0.0,WUHU216DAVISVP2,2013-07-15 03:50:00,
2013-07-14 22:55:00,69.4,66.0,29.94,NNE,25,7.0,12.0,89,0.00,,,0.00,0.0,WUHU216DAVISVP2,2013-07-15 03:55:00,
2013-07-14 23:00:00,69.4,66.3,30.16,NNE,19,10.0,10.0,90,0.00,,OVC090,0.00,0.00,VWS V14.01,2013-07-15 04:00:00,
2013-07-14 23:01:00,69.4,66.0,29.94,NNE,21,8.0,11.0,89,0.00,,,0.00,0.0,WUHU216DAVISVP2,2013-07-15 04:01:00,
2013-07-14 23:06:00,69.5,66.1,29.94,NNE,30,7.0,11.0,89,0.00,,,0.00,0.0,WUHU216DAVISVP2,2013-07-15 04:06:00,
2013-07-14 23:11:00,69.5,66.1,29.94,NNE,31,6.0,11.0,89,0.00,,,0.00,0.0,WUHU216DAVISVP2,2013-07-15 04:11:00,
2013-07-14 23:16:00,69.6,66.2,29.94,NE,37,7.0,11.0,89,0.00,,,0.00,0.0,WUHU216DAVISVP2,2013-07-15 04:16:00,
2013-07-14 23:21:00,69.7,66.3,30.16,NNE,19,11.0,11.0,89,0.00,,OVC090,0.00,0.00,VWS V14.01,2013-07-15 04:21:00,
2013-07-14 23:26:00,69.8,66.1,29.94,NNE,23,6.0,10.0,88,0.00,,,0.00,0.0,WUHU216DAVISVP2,2013-07-15 04:26:00,
2013-07-14 23:31:00,69.9,66.2,29.94,NNE,30,9.0,10.0,88,0.00,,,0.00,0.0,WUHU216DAVISVP2,2013-07-15 04:31:00,
2013-07-14 23:36:00,70.0,66.6,30.16,NE,34,7.0,7.0,89,0.00,,OVC090,0.00,0.00,VWS V14.01,2013-07-15 04:36:00,
2013-07-14 23:41:00,70.0,66.6,30.16,NNE,15,9.0,9.0,89,0.00,,OVC090,0.00,0.00,VWS V14.01,2013-07-15 04:41:00,
2013-07-14 23:46:00,70.1,66.4,29.94,NNE,30,5.0,11.0,88,0.00,,,0.00,0.0,WUHU216DAVISVP2,2013-07-15 04:46:00,
2013-07-14 23:51:00,70.0,66.3,29.94,NE,40,7.0,10.0,88,0.00,,,0.00,0.0,WUHU216DAVISVP2,2013-07-15 04:51:00,
2013-07-14 23:56:00,70.0,66.3,29.95,NNE,32,5.0,10.0,88,0.00,,,0.00,0.0,WUHU216DAVISVP2,2013-07-15 04:56:00,